Content
SEND FEEDBACK

Daily
Averages
Monthly
Summary
United States of America

UPI, GUAM


Home > North America > United States > Guam
Elevation: 16 meters     Latitude: 13 34N     Longitude: 144 55E

WEATHER
 
SELECT A DAY
Number of Records: 214,850;   Date Range: 1/1/95 - 11/23/14
 
SHARE

PRINT THIS DATA

[ ← Previous Day ]
WEATHER ALMANAC - 5 APRIL, 2013
[ Next Day → ]
[ °F ]   °C
Weather ElementAverageHighLow
Temperature28.5 °C31.1 °C (11:54 am)25.6 °C (6:54 am)
Dewpoint21.4 °C22.2 °C (4:54 pm)20.6 °C (4:54 am)
Humidity65.8 %76 % (6:54 am)53 % (12:54 pm)
Barometer1010.8 hPa1012.5 hPa (9:54 am)1008.8 hPa (3:54 pm)
Wind Speed15 km/h27.8 km/h (2:54 pm)
Wind Gust38.9 km/h (2:54 pm)
Weather ElementAverage
Visibility16.1 km
Wind DirectionENE (76.2 °)

Weather ElementTotal
Precipitation---
Cooling Degree Days10.1 (Base 18.3)
Growing Degree Days18.4 (Base 10)
Averaged from 26 records on 5 April, 2013
WEATHER CONDITIONS BREAKOUT
WIND DIRECTION BREAKOUT
WEATHER BY HOUR - 5 APRIL, 2013
[ °F ]   °C
Local TimeTemperatureDewpointHumidityBarometerVisibilityWind DirectionWind SpeedGust SpeedPrecipitationEventsConditions
1:30 AM27 °C22 °C74 %1011.9 hPa16.1 kmEast (80°)5.6 km/hMostly Cloudy
1:38 AM27 °C22 °C74 %1011.9 hPa16.1 kmEast (80°)9.3 km/hMostly Cloudy
1:54 AM27.2 °C21.7 °C72 %1010.8 hPa16.1 kmEast (80°)7.4 km/hMostly Cloudy
2:54 AM27.2 °C21.1 °C69 %1010.5 hPa16.1 kmENE (70°)9.3 km/hClear
3:54 AM26.7 °C21.1 °C71 %1010.2 hPa16.1 kmEast (90°)7.4 km/hScattered Clouds
4:54 AM26.7 °C20.6 °C69 %1010.5 hPa16.1 kmEast (90°)7.4 km/hClear
5:54 AM26.1 °C20.6 °C72 %1010.5 hPa16.1 kmEast (80°)7.4 km/hClear
6:54 AM25.6 °C21.1 °C76 %1011.2 hPa16.1 kmNNE (20°)5.6 km/hClear
7:54 AM28.3 °C21.1 °C65 %1011.9 hPa16.1 kmENE (60°)13 km/hClear
8:54 AM28.9 °C21.1 °C63 %1012.2 hPa16.1 kmEast (80°)14.8 km/hPartly Cloudy
9:54 AM30 °C21.1 °C59 %1012.5 hPa16.1 kmEast (80°)20.4 km/hPartly Cloudy
10:54 AM30.6 °C20.6 °C55 %1011.9 hPa16.1 kmENE (70°)22.2 km/hPartly Cloudy
11:54 AM31.1 °C21.1 °C55 %1011.5 hPa16.1 kmEast (80°)22.2 km/hPartly Cloudy
12:54 PM31.1 °C20.6 °C53 %1010.5 hPa16.1 kmEast (90°)22.2 km/hPartly Cloudy
1:54 PM31.1 °C21.7 °C57 %1009.8 hPa16.1 kmEast (80°)24.1 km/hScattered Clouds
2:54 PM30.6 °C21.7 °C59 %1009.1 hPa16.1 kmENE (70°)27.8 km/h38.9 km/hScattered Clouds
3:54 PM30.6 °C21.7 °C59 %1008.8 hPa16.1 kmENE (70°)27.8 km/hScattered Clouds
4:54 PM29.4 °C22.2 °C65 %1008.8 hPa16.1 kmEast (80°)27.8 km/hMostly Cloudy
5:04 PM29 °C22 °C66 %1009.8 hPa16.1 kmEast (90°)22.2 km/hScattered Clouds
5:54 PM28.9 °C21.7 °C65 %1009.5 hPa16.1 kmEast (90°)18.5 km/hPartly Cloudy
6:54 PM27.8 °C21.1 °C67 %1009.8 hPa16.1 kmEast (80°)11.1 km/hPartly Cloudy
7:54 PM28.3 °C21.7 °C67 %1010.8 hPa16.1 kmEast (80°)9.3 km/hPartly Cloudy
8:54 PM27.8 °C21.7 °C69 %1011.2 hPa16.1 kmENE (70°)11.1 km/hPartly Cloudy
9:54 PM27.8 °C22.2 °C71 %1011.9 hPa16.1 kmEast (80°)7.4 km/hPartly Cloudy
10:54 PM27.8 °C22.2 °C71 %1011.9 hPa16.1 kmENE (70°)11.1 km/hScattered Clouds
11:54 PM27.8 °C21.7 °C69 %1011.5 hPa16.1 kmENE (70°)14.8 km/hPartly Cloudy
Hourly data recorded from PGUM, located 0 kilometers away from Upi, Guam







STORIES FROM OUR PARTNERS